Change the Weather History Date:

Thursday, January 1, 2015

  Actual Average Record
Temperature  
Mean Temperature 29 °F 31 °F  
Max Temperature 38 °F 39 °F 69 °F (1876)
Min Temperature 20 °F 24 °F -4 °F (1968)
Degree Days  
Heating Degree Days 36 34  
Month to date heating degree days 36 34  
Since 1 July heating degree days 2016 1953  
Cooling Degree Days 0 0  
Month to date cooling degree days 0 0  
Year to date cooling degree days 0 0  
Moisture  
Dew Point 12 °F    
Average Humidity 47    
Maximum Humidity 59    
Minimum Humidity 35    
Precipitation  
Precipitation 0.00 in 0.11 in 1.54 in (1948)
Month to date precipitation 0.00 0.11  
Year to date precipitation 0.00 0.11  
Snow  
Snow 0.00 in 0.20 in 7.60 in (1964)
Month to date snowfall 0.0 0.2  
Since 1 July snowfall 5.2 5.8  
Snow Depth 0.00 in    
Sea Level Pressure  
Sea Level Pressure 30.23 in    
Wind  
Wind Speed 11 mph (SW)    
Max Wind Speed 20 mph    
Max Gust Speed 26 mph    
Visibility 10 miles    
Events      
T = Trace of Precipitation, MM = Missing Value Source: NWS Daily Summary

Daily Weather History Graph

Daily Weather History Graph

Search for Another Location

Airport or City:

Trip Planner

Search our weather history database for the weather conditions in past years. The results will help you decide how hot, cold, wet, or windy it might be!

Date:

Astronomy

Jan. 01, 2015 Rise Set
Actual Time 7:57 AM EST 5:26 PM EST
Civil Twilight 7:27 AM EST 5:56 PM EST
Nautical Twilight 6:54 AM EST 6:30 PM EST
Astronomical Twilight 6:21 AM EST 7:02 PM EST
Moon 2:58 PM EST 4:26 AM EST
Length of Visible Light 10h 28m
Length of Day
9h 29m
Waxing Gibbous, 88% of the Moon is Illuminated
Jan 1
Waxing Gibbous
Jan 4
Full
Jan 13
Last Quarter
Jan 20
New
Jan 26
First Quarter

Hourly Weather History & Observations

Time (EST) Temp. Windchill Dew Point Humidity Pressure Visibility Wind Dir Wind Speed Gust Speed Precip Events Conditions
12:52 AM 21.9 °F 10.4 °F 3.9 °F 46% 30.33 in 10.0 mi WSW 11.5 mph 17.3 mph N/A   Clear
1:52 AM 21.0 °F 9.9 °F 5.0 °F 50% 30.32 in 10.0 mi SW 10.4 mph - N/A   Clear
2:52 AM 21.0 °F 11.4 °F 6.1 °F 53% 30.32 in 10.0 mi SW 8.1 mph - N/A   Scattered Clouds
3:52 AM 21.0 °F 12.4 °F 7.0 °F 55% 30.29 in 10.0 mi SW 6.9 mph - N/A   Partly Cloudy
4:52 AM 21.0 °F 10.6 °F 7.0 °F 55% 30.27 in 10.0 mi SW 9.2 mph - N/A   Scattered Clouds
5:52 AM 21.0 °F 11.4 °F 8.1 °F 57% 30.27 in 10.0 mi SW 8.1 mph 17.3 mph N/A   Partly Cloudy
6:52 AM 21.9 °F 12.5 °F 8.1 °F 55% 30.27 in 10.0 mi SW 8.1 mph - N/A   Mostly Cloudy
7:52 AM 21.0 °F 13.4 °F 9.0 °F 60% 30.26 in 10.0 mi SW 5.8 mph - N/A   Partly Cloudy
8:52 AM 23.0 °F 13.1 °F 10.0 °F 58% 30.26 in 10.0 mi SSW 9.2 mph - N/A   Mostly Cloudy
9:52 AM 26.1 °F 15.0 °F 10.9 °F 53% 30.26 in 10.0 mi SSW 12.7 mph 19.6 mph N/A   Scattered Clouds
10:52 AM 28.9 °F 18.2 °F 10.9 °F 47% 30.25 in 10.0 mi SSW 13.8 mph - N/A   Scattered Clouds
11:52 AM 33.1 °F 22.2 °F 10.0 °F 38% 30.20 in 10.0 mi SW 17.3 mph 23.0 mph N/A   Mostly Cloudy
12:52 PM 35.1 °F 25.9 °F 10.9 °F 37% 30.17 in 10.0 mi SW 13.8 mph 21.9 mph N/A   Mostly Cloudy
1:52 PM 37.0 °F 27.7 °F 14.0 °F 39% 30.14 in 10.0 mi SW 16.1 mph 20.7 mph N/A   Mostly Cloudy
2:52 PM 37.0 °F 27.7 °F 15.1 °F 41% 30.14 in 10.0 mi SW 16.1 mph 23.0 mph N/A   Mostly Cloudy
3:52 PM 37.0 °F 27.0 °F 16.0 °F 42% 30.13 in 10.0 mi SW 18.4 mph 24.2 mph N/A   Mostly Cloudy
4:52 PM 36.0 °F 28.0 °F 17.1 °F 46% 30.14 in 10.0 mi SW 11.5 mph 19.6 mph N/A   Mostly Cloudy
5:52 PM 35.1 °F 28.6 °F 17.1 °F 48% 30.16 in 10.0 mi WSW 8.1 mph 19.6 mph N/A   Mostly Cloudy
6:52 PM 34.0 °F 26.6 °F 18.0 °F 52% 30.18 in 10.0 mi SW 9.2 mph - N/A   Mostly Cloudy
7:52 PM 34.0 °F 26.0 °F 19.0 °F 54% 30.20 in 10.0 mi WSW 10.4 mph - N/A   Overcast
8:52 PM 33.1 °F 24.9 °F 19.0 °F 56% 30.20 in 10.0 mi SW 10.4 mph - N/A   Overcast
9:52 PM 34.0 °F 27.2 °F 19.9 °F 56% 30.22 in 10.0 mi WSW 8.1 mph 16.1 mph N/A   Overcast
10:52 PM 33.1 °F 28.7 °F 19.9 °F 59% 30.24 in 10.0 mi WSW 4.6 mph - N/A   Overcast
11:52 PM 32.0 °F 27.5 °F 21.0 °F 64% 30.24 in 10.0 mi SW 4.6 mph - N/A   Overcast